User: anonymous
Location: El Centro
(32.7920°N, 115.5620°W)
Time: 03:10:34
(UTC-07:00)
Language:

Hamsat - Orbit

View from above orbital plane
View from above orbital plane
View from above satellite
View from above satellite

Ground track
Ground track

The orbit data is extracted from the following two-line orbital elements,

1 28650U 05017B   14105.77476651  .00002131  00000-0  25306-3 0  7105
2 28650 097.5605 113.8702 0025142 008.1560 352.0059 14.85238750483968
Epoch (UTC): 15 April 2014 18:35:39
Eccentricity: 0.0025142
inclination: 97.5605°
perigee height: 595 km
apogee height: 630 km
right ascension of ascending node: 113.8702°
argument of perigee: 8.1560°
revolutions per day: 14.85238750
mean anomaly at epoch: 352.0059°
orbit number at epoch: 48396

The dashed part of the orbit path shows where the satellite is in the earth's shadow,  

DLR